N8XE-13 Weather Reports


time (UTC)temp
C
wind
direction
speed
KPH
gust
KPH
rain 1hr
cm
rain 24hr
cm
rain mn
cm
humidity
%
barometer
mb
20260507010351 11 335 0.0 0.0 0.00 0.58 0.58 59
20260507005849 11 326 0.0 0.0 0.00 0.58 0.58 59
20260507005345 11 338 0.0 0.0 0.00 0.58 0.58 59
20260507004842 11 330 0.0 0.0 0.00 0.58 0.58 60
20260507004339 11 347 0.0 0.0 0.00 0.58 0.58 59
20260507003836 11 327 0.0 0.0 0.00 0.58 0.58 59
20260507003332 11 305 0.0 0.0 0.00 0.58 0.58 59
20260507002827 11 323 0.0 0.0 0.00 0.58 0.58 58
20260507002323 11 281 0.0 0.0 0.00 0.58 0.58 57
20260507001821 11 322 0.0 0.0 0.00 0.58 0.58 57
20260507001318 11 320 0.0 0.0 0.00 0.58 0.58 56
20260507000814 11 316 0.0 0.0 0.00 0.58 0.58 56
20260507000310 11 342 0.0 1.6 0.00 0.58 0.58 55
20260506235806 12 346 0.0 0.0 0.00 0.58 0.58 55
20260506235306 12 324 0.0 0.0 0.00 0.58 0.58 56
20260506234754 12 1 0.0 0.0 0.00 0.58 0.58 55
20260506234251 12 326 0.0 0.0 0.00 0.58 0.58 54
20260506233749 12 330 0.0 1.6 0.00 0.58 0.58 53
20260506233245 12 332 1.6 9.7 0.00 0.58 0.58 52
20260506232742 12 333 0.0 3.2 0.00 0.58 0.58 53
20260506232236 12 341 1.6 8.0 0.00 0.58 0.58 52
20260506231734 12 339 0.0 3.2 0.00 0.58 0.58 51
20260506231232 12 338 0.0 0.0 0.00 0.58 0.58 53
20260506230729 12 336 3.2 4.8 0.00 0.58 0.58 52
20260506230225 12 323 1.6 4.8 0.00 0.58 0.58 52
20260506225722 12 341 0.0 1.6 0.00 0.58 0.58 53
20260506225221 12 348 1.6 3.2 0.00 0.58 0.58 52
20260506224715 12 340 0.0 3.2 0.00 0.58 0.58 53
20260506224213 12 312 0.0 3.2 0.00 0.58 0.58 54
20260506223709 12 295 0.0 3.2 0.00 0.58 0.58 52
20260506223205 12 309 0.0 3.2 0.00 0.58 0.58 54
20260506222702 12 338 0.0 0.0 0.00 0.58 0.58 55
20260506222157 12 344 0.0 1.6 0.00 0.58 0.58 54
20260506221656 12 350 0.0 1.6 0.00 0.58 0.58 53
20260506221153 13 319 1.6 4.8 0.00 0.58 0.58 53
20260506220650 13 308 0.0 0.0 0.00 0.58 0.58 52
20260506220145 13 349 0.0 1.6 0.00 0.58 0.58 52
20260506215642 13 347 1.6 3.2 0.00 0.58 0.58 52
20260506215137 12 356 0.0 3.2 0.00 0.58 0.58 52
20260506214634 13 325 0.0 3.2 0.00 0.58 0.58 52
20260506214132 12 350 0.0 3.2 0.00 0.58 0.58 53
20260506213630 12 341 1.6 3.2 0.00 0.58 0.58 51
20260506213127 13 2 0.0 3.2 0.00 0.58 0.58 51
20260506212624 12 359 1.6 4.8 0.00 0.58 0.58 52
20260506212119 12 339 0.0 0.0 0.00 0.58 0.58 52
20260506211614 12 353 0.0 1.6 0.00 0.58 0.58 52
20260506211112 13 18 3.2 4.8 0.00 0.58 0.58 52
20260506210609 13 358 1.6 9.7 0.00 0.58 0.58 52
20260506210105 12 352 0.0 1.6 0.00 0.58 0.58 53
20260506205602 12 351 1.6 3.2 0.00 0.58 0.58 53
20260506205057 13 326 3.2 4.8 0.00 0.58 0.58 52
20260506204555 13 344 0.0 0.0 0.00 0.58 0.58 54
20260506204052 13 349 1.6 4.8 0.00 0.58 0.58 53
20260506203550 13 338 0.0 0.0 0.00 0.58 0.58 54
20260506203046 13 331 1.6 3.2 0.00 0.58 0.58 54
20260506202544 13 356 0.0 1.6 0.00 0.58 0.58 54
20260506202040 13 11 0.0 4.8 0.00 0.58 0.58 52
20260506201538 13 4 1.6 3.2 0.00 0.58 0.58 50
20260506201034 13 349 1.6 4.8 0.00 0.58 0.58 51
20260506200530 13 343 0.0 8.0 0.00 0.58 0.58 53
20260506200027 13 9 1.6 14.5 0.00 0.58 0.58 53
20260506195524 13 354 1.6 3.2 0.00 0.58 0.58 53
20260506195020 13 3 3.2 3.2 0.00 0.58 0.58 53
20260506194518 13 14 0.0 0.0 0.00 0.58 0.58 54
20260506194015 13 25 3.2 4.8 0.00 0.58 0.58 54
20260506193512 13 10 0.0 4.8 0.00 0.58 0.58 53
20260506193009 13 7 3.2 9.7 0.00 0.58 0.58 52
20260506192506 13 8 1.6 4.8 0.00 0.58 0.58 52
20260506192002 13 1 1.6 4.8 0.00 0.58 0.58 53
20260506191459 13 5 0.0 3.2 0.00 0.58 0.58 52
20260506190955 14 24 0.0 8.0 0.00 0.58 0.58 52
20260506190452 14 306 0.0 1.6 0.00 0.58 0.58 50
20260506185948 14 346 0.0 3.2 0.00 0.58 0.58 51
20260506185446 15 327 0.0 1.6 0.00 0.58 0.58 52
20260506184943 14 7 1.6 4.8 0.00 0.58 0.58 52
20260506184439 14 3 4.8 12.9 0.00 0.58 0.58 52
20260506183937 13 14 3.2 4.8 0.00 0.58 0.58 52
20260506183432 14 332 0.0 4.8 0.00 0.58 0.58 52
20260506182929 14 333 0.0 3.2 0.00 0.58 0.58 52
20260506182427 14 358 0.0 3.2 0.00 0.58 0.58 52
20260506181924 15 3 3.2 4.8 0.00 0.58 0.58 52
20260506181422 14 307 0.0 12.9 0.00 0.58 0.58 52
20260506180918 13 358 3.2 4.8 0.00 0.58 0.58 54
20260506180414 14 32 1.6 3.2 0.00 0.58 0.58 56
20260506175911 14 354 0.0 3.2 0.00 0.58 0.58 54
20260506175408 13 1 1.6 3.2 0.00 0.58 0.58 52
20260506174905 13 346 1.6 8.0 0.00 0.58 0.58 53
20260506174403 14 320 0.0 11.3 0.00 0.58 0.58 53
20260506173900 14 302 1.6 4.8 0.00 0.58 0.58 55
20260506173356 14 291 6.4 14.5 0.00 0.58 0.58 51
20260506172854 14 357 3.2 17.7 0.00 0.58 0.58 53
20260506172350 14 334 0.0 1.6 0.00 0.58 0.58 53
20260506171848 13 1 0.0 8.0 0.00 0.58 0.58 53
20260506171344 13 23 1.6 3.2 0.00 0.58 0.58 53
20260506170842 13 333 4.8 11.3 0.00 0.58 0.58 52
20260506170338 13 355 4.8 11.3 0.00 0.58 0.58 57
20260506165832 12 5 0.0 8.0 0.00 0.58 0.58 58
20260506165329 13 323 3.2 8.0 0.00 0.58 0.58 58
20260506164825 13 1 1.6 9.7 0.00 0.58 0.58 57
20260506164322 13 354 3.2 4.8 0.00 0.58 0.58 56
20260506163820 13 338 3.2 9.7 0.00 0.58 0.58 58
20260506163314 13 354 1.6 3.2 0.00 0.58 0.58 57
20260506162810 12 354 0.0 4.8 0.00 0.58 0.58 58
20260506162308 12 339 0.0 0.0 0.00 0.58 0.58 62
20260506161805 12 292 0.0 1.6 0.00 0.58 0.58 60
20260506161302 12 242 1.6 8.0 0.00 0.58 0.58 63
20260506160800 12 340 0.0 9.7 0.00 0.58 0.58 59
20260506160256 12 349 0.0 0.0 0.00 0.58 0.58 60
20260506155755 12 321 0.0 11.3 0.00 0.58 0.58 62
20260506155252 11 46 0.0 8.0 0.00 0.58 0.58 64
20260506153404 11 13 0.0 0.0 0.00 0.58 0.58 65
20260506152901 11 28 0.0 1.6 0.00 0.58 0.58 64
20260506152358 11 335 0.0 1.6 0.00 0.58 0.58 64
20260506151857 11 9 1.6 8.0 0.00 0.58 0.58 65
20260506151353 11 354 0.0 3.2 0.00 0.58 0.58 65
20260506150851 11 337 0.0 3.2 0.00 0.58 0.58 64
20260506150347 10 329 0.0 3.2 0.00 0.58 0.58 65
20260506145844 10 67 0.0 1.6 0.00 0.58 0.58 67
20260506145340 10 339 0.0 3.2 0.00 0.58 0.58 66
20260506144838 10 7 0.0 8.0 0.00 0.58 0.58 67
20260506144334 10 29 0.0 3.2 0.00 0.58 0.58 69
20260506143833 10 21 0.0 1.6 0.00 0.58 0.58 71
20260506143329 10 344 3.2 9.7 0.00 0.58 0.58 69
20260506142828 10 321 0.0 0.0 0.00 0.58 0.58 72
20260506142325 10 341 1.6 3.2 0.00 0.58 0.58 74
20260506141824 9 357 1.6 4.8 0.00 0.58 0.58 75
20260506141321 9 18 0.0 4.8 0.00 0.58 0.58 76
20260506140819 9 340 0.0 4.8 0.00 0.58 0.58 77
20260506140316 9 332 4.8 9.7 0.00 0.58 0.58 78
20260506135813 8 355 1.6 3.2 0.00 0.58 0.58 78
20260506135309 8 343 0.0 8.0 0.00 0.58 0.58 79
20260506134806 8 14 0.0 12.9 0.00 0.58 0.58 79
20260506134302 8 338 0.0 3.2 0.00 0.58 0.58 80
20260506133759 8 359 0.0 0.0 0.00 0.58 0.58 82
20260506133256 8 343 0.0 3.2 0.00 0.58 0.58 81
20260506132753 8 22 0.0 12.9 0.00 0.58 0.58 81
20260506132250 8 7 0.0 8.0 0.00 0.58 0.58 83
20260506131748 7 334 0.0 4.8 0.00 0.58 0.58 84
20260506131243 7 335 0.0 1.6 0.00 0.58 0.58 85
20260506130741 7 18 8.0 16.1 0.00 0.58 0.58 87
20260506130237 7 3 0.0 3.2 0.00 0.58 0.58 89
20260506125736 7 5 3.2 9.7 0.00 0.58 0.58 91
20260506125233 7 345 0.0 9.7 0.00 0.58 0.58 92
20260506124731 7 353 0.0 1.6 0.00 0.58 0.58 93
20260506124229 6 351 0.0 1.6 0.00 0.58 0.58 93
20260506123726 7 341 0.0 1.6 0.00 0.58 0.58 93
20260506123225 6 328 1.6 12.9 0.00 0.58 0.58 94
20260506122721 6 357 1.6 8.0 0.00 0.58 0.58 94
20260506122218 6 342 0.0 3.2 0.00 0.58 0.58 95
20260506121716 6 5 0.0 9.7 0.00 0.58 0.58 95
20260506121213 7 351 0.0 3.2 0.00 0.58 0.58 95
20260506120710 7 1 0.0 8.0 0.00 0.58 0.58 95
20260506120208 7 354 0.0 0.0 0.00 0.58 0.58 95
20260506115706 7 10 0.0 0.0 0.00 0.58 0.58 95
20260506115204 7 347 0.0 3.2 0.00 0.58 0.58 95
20260506114701 7 11 0.0 3.2 0.00 0.58 0.58 95
20260506114158 7 342 1.6 9.7 0.00 0.58 0.58 95
20260506113657 7 357 0.0 0.0 0.00 0.58 0.58 96
20260506113154 7 340 0.0 9.7 0.00 0.58 0.58 96
20260506112650 7 338 0.0 0.0 0.00 0.58 0.58 96
20260506112148 7 7 0.0 3.2 0.00 0.58 0.58 96
20260506111645 7 358 0.0 1.6 0.00 0.58 0.58 96
20260506111143 7 357 0.0 1.6 0.00 0.58 0.58 96
20260506110640 7 37 0.0 3.2 0.00 0.58 0.58 96
20260506110137 7 356 0.0 0.0 0.00 0.58 0.58 96
20260506105633 7 14 0.0 4.8 0.00 0.58 0.58 96
20260506105130 7 359 0.0 1.6 0.00 0.58 0.58 96
20260506104629 7 19 0.0 1.6 0.00 0.58 0.58 96
20260506104126 7 5 0.0 11.3 0.00 0.58 0.58 96
20260506103623 7 344 0.0 14.5 0.00 0.58 0.58 96
20260506103120 7 348 1.6 9.7 0.00 0.58 0.58 96
20260506102618 7 1 1.6 4.8 0.00 0.58 0.58 96
20260506102115 7 346 0.0 4.8 0.00 0.58 0.58 96
20260506101612 7 353 0.0 3.2 0.00 0.58 0.58 96
20260506101109 7 342 0.0 1.6 0.00 0.58 0.58 96
20260506100607 7 353 0.0 11.3 0.00 0.58 0.58 96
20260506100105 7 2 0.0 0.0 0.00 0.58 0.58 96
20260506095604 7 340 0.0 1.6 0.18 0.58 0.58 96
20260506095100 7 357 0.0 4.8 0.18 0.58 0.58 96
20260506094557 7 352 0.0 4.8 0.00 0.56 0.56 96
20260506094055 7 10 1.6 4.8 0.00 0.56 0.56 96
20260506093553 7 354 0.0 3.2 0.00 0.56 0.56 96
20260506093051 7 348 0.0 0.0 0.00 0.56 0.56 96
20260506092548 7 356 3.2 9.7 0.00 0.56 0.56 96
20260506092045 7 354 0.0 4.8 0.00 0.56 0.56 96
20260506091543 7 7 1.6 3.2 0.00 0.56 0.56 96
20260506091040 7 0 3.2 11.3 0.00 0.56 0.56 96
20260506090538 7 355 0.0 11.3 0.00 0.56 0.56 96
20260506090034 7 0 0.0 3.2 0.00 0.56 0.56 96
20260506085531 7 4 1.6 9.7 0.00 0.56 0.56 96
20260506085027 7 346 0.0 12.9 0.13 0.56 0.56 96
20260506084525 7 8 6.4 9.7 0.00 0.53 0.53 96
20260506084020 7 3 0.0 16.1 0.18 0.53 0.53 96
20260506083517 7 349 0.0 4.8 0.18 0.53 0.53 96
20260506083015 7 355 0.0 3.2 0.13 0.51 0.51 96
20260506082512 7 20 8.0 11.3 0.13 0.51 0.51 96
20260506082007 7 9 9.7 14.5 0.18 0.48 0.48 96
20260506081506 7 19 8.0 11.3 0.18 0.46 0.46 96
20260506081003 7 9 0.0 14.5 0.18 0.46 0.46 96
20260506080500 7 24 0.0 14.5 0.00 0.43 0.43 96
20260506073444 7 14 8.0 14.5 0.00 0.41 0.41 96
20260506072941 7 342 0.0 1.6 0.00 0.41 0.41 96
20260506072438 7 14 0.0 1.6 0.00 0.41 0.41 96
20260506071936 7 23 1.6 9.7 0.00 0.41 0.41 96
20260506071433 7 10 0.0 1.6 0.18 0.41 0.41 96
20260506070930 7 8 0.0 9.7 0.18 0.41 0.41 96
20260506070427 7 9 1.6 11.3 0.13 0.38 0.38 96
20260506062405 8 3 1.6 11.3 0.18 0.25 0.25 96
20260506061900 8 353 8.0 12.9 0.13 0.23 0.23 96
20260506061357 8 348 0.0 11.3 0.30 0.23 0.23 96
20260506060855 8 347 3.2 14.5 0.36 0.20 0.20 96
20260506060353 8 354 0.0 9.7 0.18 0.18 0.18 96
20260506051325 8 1 0.0 4.8 0.18 0.08 0.08 96
20260506050823 9 319 0.0 1.6 0.13 0.05 0.05 96
20260506050320 9 347 8.0 12.9 0.18 0.03 0.03 96
20260506044810 9 17 1.6 3.2 0.00 0.00 0.00 96
20260506044308 9 15 1.6 9.7 0.00 0.00 0.00 96
20260506043805 9 1 0.0 1.6 0.00 0.00 0.00 96
20260506043302 9 16 0.0 3.2 0.00 0.00 0.00 96
20260506042801 9 27 0.0 0.0 0.00 0.00 0.00 96
20260506042259 9 37 4.8 12.9 0.00 0.00 0.00 96
20260506041757 9 7 0.0 3.2 0.00 0.00 0.00 96
20260506041254 9 12 0.0 0.0 0.00 0.00 0.00 96
20260506040751 10 5 0.0 4.8 0.00 0.00 0.00 96
20260506040248 10 353 0.0 0.0 0.00 0.00 0.00 96
20260506035745 9 12 0.0 0.0 0.00 1.30 1.30 96
20260506035242 9 347 0.0 3.2 0.00 1.30 1.30 96
20260506034739 9 3 1.6 3.2 0.00 1.30 1.30 96
20260506034236 9 19 4.8 9.7 0.13 1.30 1.30 96
20260506033733 9 8 1.6 8.0 0.13 1.30 1.30 96
20260506033230 9 7 3.2 4.8 0.00 1.27 1.27 96
20260506032727 10 17 1.6 3.2 0.18 1.27 1.27 96
20260506032224 10 0 6.4 12.9 0.30 1.27 1.27 96
20260506031720 10 52 1.6 8.0 0.30 1.24 1.24 96
20260506031218 10 358 1.6 9.7 0.30 1.22 1.22 96
20260506030716 10 353 0.0 9.7 0.30 1.19 1.19 96
20260506030213 10 10 3.2 9.7 0.48 1.17 1.17 96
20260506025710 11 8 4.8 8.0 0.43 1.12 1.12 96
20260506025206 11 340 1.6 4.8 0.30 1.09 1.09 96
20260506024703 11 359 0.0 3.2 0.00 1.04 1.04 96
20260506024200 12 342 0.0 11.3 0.18 1.04 1.04 95
20260506023656 15 328 0.0 4.8 0.18 1.04 1.04 95
20260506023154 15 311 0.0 0.0 0.00 1.02 1.02 96
20260506022650 15 330 0.0 0.0 0.13 1.02 1.02 96
20260506022148 15 297 0.0 0.0 0.13 1.02 1.02 96
20260506021646 15 328 0.0 0.0 0.18 0.99 0.99 96
20260506021143 15 322 0.0 0.0 0.13 0.97 0.97 96
20260506020640 15 318 0.0 0.0 0.30 0.97 0.97 96
20260506020137 15 317 0.0 0.0 0.30 0.94 0.94 96
20260506015635 15 318 0.0 0.0 0.13 0.91 0.91 96
20260506015131 15 309 0.0 0.0 0.18 0.89 0.89 96
20260506014629 15 325 0.0 0.0 0.13 0.86 0.86 95
20260506014125 15 324 0.0 0.0 0.18 0.84 0.84 95
20260506013623 15 310 0.0 0.0 0.36 0.84 0.84 95
20260506013119 15 310 0.0 0.0 0.18 0.81 0.81 95
20260506012616 15 281 0.0 0.0 0.13 0.79 0.79 95
20260506012112 15 296 0.0 0.0 0.30 0.79 0.79 95
20260506011610 15 248 0.0 0.0 0.00 0.74 0.74 95
20260506011106 15 310 0.0 0.0 0.13 0.74 0.74 95